Location: Newark
(52.8300°N, 8.0000°E)
Time: 11:10:21
(UTC+00:00)

STARLINK-1112 - Pass Details

Date: 29 January 2020
Orbit: 539 x 541 km, 53.0° (Epoch: 19 February)

Event Time Altitude Azimuth Distance (km) Brightness Sun altitude
Rises 18:46:48 0° 286° (WNW) 2,695 8.4 -24.1°
Reaches altitude 10° 18:49:19 10° 272° (W) 1,800 7.3 -24.4°
Maximum altitude 18:52:37 24° 218° (SW) 1,147 5.5 -24.9°
Enters shadow 18:53:35 22° 196° (SSW) 1,216 5.4 -25.1°
